Wind_Speed
9 10 11 10 12 13 9 5 2 2 2 4 5 4 7 5 4 1 0 4 1 3 5 3 6 7 5 6 11 10 10 7 4 1 1 7 18 19 21 27 27 26 25 24 23 21 18 17 15 15 16 15 14 16 17 17 16 16 15 14 15 14 14 14 14 14 14 14 14 15 15 16 17 16 17 17 16 16 15 13 12 12 11 11 11 10 10 10 10 11 11 10 9 9 11 12 12
8 10 9 11 13 9 3 2 2 2 3 4 5 5 5 2 2 3 2 8 4 4 5 5 6 5 3 6 9 8 10 10 7 4 6 13 17 19 26 26 26 26 26 25 23 21 19 17 16 16 16 16 15 16 16 16 16 15 15 15 15 14 14 14 14 14 13 14 15 16 16 16 17 17 17 16 15 15 13 12 11 11 11 11 11 10 10 10 11 11 11 10 10 11 11 11 11
8 9 9 12 9 6 2 2 3 3 4 4 5 6 3 3 2 1 6 10 6 4 4 4 5 4 2 3 6 7 6 8 9 7 6 12 11 18 26 24 24 25 25 25 22 21 21 19 16 16 17 16 16 16 17 17 16 14 14 14 14 13 13 13 13 13 13 13 14 15 16 17 17 16 15 14 13 13 12 11 12 12 12 12 12 11 11 11 11 11 10 10 11 11 11 10 9
8 7 9 11 5 4 3 3 3 4 5 4 4 4 5 5 3 7 8 8 4 3 3 2 4 5 6 7 6 7 8 6 10 8 5 10 13 20 25 24 24 24 24 24 22 21 21 19 17 16 17 17 17 17 17 17 15 13 13 13 13 12 12 13 13 14 13 12 13 14 15 16 16 15 14 13 13 12 12 12 13 14 14 14 13 12 12 11 11 11 10 10 11 11 11 11 11
9 9 9 9 3 1 2 2 4 5 5 5 4 2 2 3 6 8 6 6 4 3 2 2 3 2 7 8 2 4 6 6 11 10 8 12 18 23 24 24 24 23 23 23 22 22 22 20 18 17 17 18 19 18 17 16 14 13 13 13 12 12 12 12 13 14 13 12 12 13 15 16 15 13 13 13 12 12 12 13 13 14 14 13 13 12 12 12 11 11 10 10 10 10 10 10 10
11 10 9 8 3 2 2 3 5 5 6 8 4 2 3 5 6 6 6 6 4 3 2 0 2 5 6 6 6 5 3 5 10 10 12 17 21 24 25 24 23 22 22 21 22 23 22 20 19 19 19 19 19 18 16 14 13 13 13 12 12 12 12 12 13 14 14 13 12 14 15 15 13 12 11 11 11 11 11 11 11 12 12 12 12 12 12 11 11 11 10 10 10 10 10 9 9
10 7 5 6 3 2 3 5 6 5 7 8 8 3 4 7 4 3 7 5 3 3 1 1 3 7 5 3 5 5 6 5 10 12 16 21 23 24 24 24 23 23 22 20 21 23 21 20 20 20 21 21 19 18 14 13 13 12 12 12 12 13 13 14 14 14 14 14 14 15 15 14 13 11 10 10 9 9 9 9 9 10 10 10 11 11 11 11 11 10 10 10 10 9 9 9 8
8 4 2 3 3 3 4 6 6 6 6 8 10 5 6 8 3 1 5 5 3 4 4 1 3 4 4 5 4 3 8 10 14 18 20 23 24 24 24 24 24 24 22 20 22 23 21 20 20 20 23 22 20 18 14 13 13 12 12 12 13 13 14 15 15 15 15 16 16 15 14 13 12 11 10 9 9 9 9 8 8 9 9 8 8 10 10 10 10 10 9 9 9 8 7 8 7
8 4 2 3 4 4 5 6 7 8 9 10 9 2 8 8 2 3 2 4 5 4 6 5 3 3 7 10 7 3 6 14 20 19 20 23 23 23 23 24 24 25 22 21 23 22 20 19 19 20 23 22 20 17 15 14 13 13 13 13 13 14 14 15 15 15 16 15 15 14 12 12 11 10 10 9 8 8 8 7 8 7 7 7 6 8 8 8 9 8 8 8 7 7 7 7 6
6 4 2 3 3 5 6 6 6 8 9 11 11 5 3 6 3 3 4 2 6 4 5 5 2 5 10 10 6 4 6 14 19 17 20 23 23 21 22 24 25 26 24 23 24 22 20 18 18 20 22 21 19 17 16 15 14 14 14 14 14 14 15 14 14 14 14 13 13 13 11 11 10 10 10 9 8 7 7 7 6 6 5 5 6 6 6 6 6 6 6 5 6 6 6 6 6
2 3 2 3 4 6 6 6 7 7 9 11 10 9 4 5 5 4 4 3 3 5 6 4 3 8 11 7 3 6 11 14 17 17 20 23 21 21 22 23 24 25 25 25 24 22 20 18 18 20 21 19 17 17 16 15 15 16 15 15 15 15 14 14 14 13 13 12 12 12 10 10 10 10 9 8 8 6 6 5 4 4 4 4 5 5 4 4 4 5 5 4 6 7 6 6 6
2 4 2 3 5 5 6 7 7 8 9 11 10 8 4 5 5 5 5 4 2 5 6 4 3 7 8 6 3 7 12 14 18 18 21 23 21 21 23 23 24 25 25 25 24 23 21 19 19 19 19 17 15 16 16 16 16 16 16 15 14 14 13 12 13 12 13 12 12 12 11 11 10 9 8 7 6 5 4 4 4 4 5 5 6 6 5 5 5 6 6 7 7 7 7 7 7
3 3 3 5 5 5 6 7 7 8 7 8 9 6 5 6 7 6 6 6 4 4 5 4 4 6 6 6 5 6 9 13 18 20 21 21 21 22 23 24 25 25 25 24 24 23 20 19 19 19 18 15 15 16 17 17 17 16 15 14 13 12 12 11 12 12 12 11 12 11 11 10 9 8 7 6 6 5 5 5 6 6 6 7 7 7 7 7 6 7 8 9 8 7 8 9 9
3 3 3 4 5 6 7 6 6 7 6 6 8 7 7 6 6 7 6 4 2 2 4 7 3 7 7 5 5 3 7 14 19 21 22 19 21 23 22 23 25 26 23 23 23 22 20 18 19 19 17 15 16 17 17 17 16 15 14 13 12 11 11 11 11 11 10 11 11 10 9 9 8 7 7 7 7 7 8 8 9 9 8 8 9 9 9 8 8 8 7 8 8 9 9 9 9
3 3 3 4 5 6 6 6 7 7 5 6 6 7 7 3 2 5 3 2 6 4 4 12 9 4 3 3 4 6 11 16 19 21 21 19 21 22 21 23 25 25 23 22 22 21 21 19 20 20 17 17 17 17 17 16 15 14 13 12 11 11 11 10 11 10 10 10 10 10 10 9 9 10 10 10 10 11 11 11 11 10 10 10 9 9 8 7 7 6 6 5 7 7 6 8 9
3 3 3 3 5 6 6 7 7 7 5 6 6 7 8 4 2 0 3 5 6 4 4 9 9 5 4 4 2 8 19 18 20 21 19 20 20 21 22 23 24 24 22 22 21 20 20 20 21 19 17 17 16 15 16 15 14 13 12 11 11 11 11 11 11 12 13 14 14 14 13 13 13 14 14 12 12 12 12 11 11 9 8 8 7 6 5 5 5 4 5 5 5 5 5 7 9
3 2 3 4 6 7 6 6 6 6 5 7 7 5 10 6 4 1 2 4 8 10 11 10 10 10 9 7 11 4 22 19 19 19 17 18 16 17 17 18 23 24 21 21 21 20 20 21 22 19 17 16 14 15 15 15 14 12 11 10 10 11 11 12 13 15 17 17 16 15 14 13 13 14 13 11 11 10 10 9 9 7 6 5 4 4 4 4 4 6 6 7 7 7 7 7 9
2 2 4 6 7 7 6 6 6 6 6 8 7 5 7 7 5 2 1 3 8 12 12 11 12 13 12 14 19 11 16 16 15 14 14 15 12 13 13 13 20 23 20 18 19 20 19 20 21 19 18 16 14 14 16 16 14 12 11 10 11 12 12 13 16 16 15 14 13 11 10 9 10 11 10 8 8 8 7 6 5 4 3 3 3 4 4 5 5 7 7 8 8 8 9 9 9
3 3 5 7 7 6 6 8 8 7 4 8 7 7 6 6 9 4 4 6 8 10 9 10 11 11 14 20 24 19 11 13 12 10 10 9 9 10 11 14 19 19 17 17 19 19 18 19 19 19 19 17 15 13 15 16 14 12 11 11 12 13 13 13 14 13 12 11 9 6 6 9 11 10 8 7 5 5 5 2 3 2 2 1 2 4 5 6 6 7 8 8 9 9 10 9 9
4 4 5 7 7 7 9 10 6 6 7 9 8 5 3 3 5 3 4 5 6 6 5 7 7 8 11 14 19 21 18 18 15 12 13 11 11 11 9 11 14 15 13 14 18 19 18 18 18 18 19 18 16 14 15 16 14 14 13 13 14 13 13 13 13 12 11 9 7 6 7 9 9 7 6 5 4 4 5 5 4 5 6 2 2 5 6 7 8 8 8 8 9 9 9 9 8
3 5 6 6 7 7 9 7 5 8 7 8 11 3 5 8 8 5 1 6 6 5 6 7 6 7 8 9 12 16 17 18 18 18 17 15 15 14 11 11 11 12 12 11 14 18 17 17 18 18 19 18 18 17 17 17 16 16 18 17 16 14 12 13 12 11 10 7 8 8 8 8 7 7 6 5 7 9 9 8 5 6 8 5 4 6 7 9 9 7 6 6 7 7 8 10 10
3 6 9 8 10 7 6 5 9 7 7 6 11 5 4 6 8 10 7 5 3 3 6 6 6 7 7 8 10 12 14 16 17 16 16 14 13 13 12 12 12 11 13 13 13 16 15 16 18 19 18 18 18 19 19 18 16 17 18 16 16 14 12 11 11 10 9 8 10 12 11 9 7 8 8 8 9 9 8 7 4 5 5 5 4 5 8 9 9 7 7 8 8 9 9 9 10
3 6 8 9 11 9 9 6 8 7 7 5 7 4 4 7 7 10 12 8 5 4 5 6 7 7 8 9 10 11 11 13 15 15 15 14 13 13 12 13 13 10 13 14 13 15 14 13 16 18 18 17 18 19 19 18 16 16 17 15 14 12 11 11 10 9 8 9 11 12 10 7 6 8 9 8 8 7 6 4 3 3 3 5 6 7 9 9 8 9 11 12 11 11 9 8 11
3 5 7 9 11 9 9 8 6 6 6 6 5 5 4 5 5 7 12 9 7 6 6 6 7 8 10 11 11 11 11 13 14 14 14 15 13 13 13 13 12 10 12 13 13 15 12 10 12 15 17 17 16 17 17 17 15 15 15 14 12 11 10 10 10 9 8 9 10 11 10 9 9 8 8 8 8 8 7 6 7 6 7 9 10 10 10 8 7 9 10 10 10 9 7 7 10
4 5 8 9 10 8 7 8 6 6 6 5 4 8 6 6 7 7 8 7 6 6 6 7 7 9 10 10 10 10 11 13 13 12 14 14 13 13 14 14 13 11 11 11 12 14 12 12 13 14 15 17 16 16 17 16 15 15 14 13 13 12 11 10 10 10 10 11 11 12 11 11 11 9 9 10 10 9 9 10 10 10 10 11 11 11 10 9 8 9 9 8 8 8 7 6 9
2 5 7 9 10 8 7 7 7 6 6 6 1 7 6 5 6 6 5 5 6 6 7 6 6 9 9 8 10 10 10 12 12 11 12 13 14 15 15 15 14 13 11 10 11 13 12 13 16 17 16 17 17 17 17 16 16 16 14 14 14 13 13 13 13 13 13 13 12 13 13 13 13 11 11 11 10 9 9 10 11 11 10 10 11 11 10 9 9 11 11 10 9 9 8 8 10
7 8 8 9 11 8 7 7 7 6 7 8 4 4 5 3 2 2 4 5 5 6 7 6 7 8 8 8 8 10 11 11 11 11 12 13 14 15 14 14 14 13 10 9 10 12 13 13 16 18 17 17 16 17 18 19 19 18 17 17 17 16 16 16 16 16 17 15 14 14 14 15 13 12 10 9 10 10 10 10 10 10 10 10 11 11 10 9 10 12 12 10 9 9 8 9 10
8 9 9 9 9 8 7 7 6 5 6 9 6 3 4 2 2 3 5 4 4 6 6 6 7 7 7 8 7 9 10 10 11 11 12 12 12 13 12 13 12 11 11 10 9 11 14 15 16 18 19 19 18 18 20 21 20 20 20 19 18 17 17 17 17 17 17 16 15 14 14 14 13 12 11 11 11 11 11 11 11 11 11 11 11 11 10 10 10 11 10 8 8 8 9 9 10
7 7 7 8 9 9 9 8 7 6 6 7 4 2 4 3 4 6 6 5 5 5 5 6 6 6 6 6 6 7 8 9 11 12 11 10 10 11 11 11 10 10 11 9 9 11 14 16 17 19 21 22 21 21 22 22 21 20 20 19 19 18 18 18 17 17 16 16 15 14 14 15 15 14 14 13 13 13 12 12 12 12 12 11 11 10 10 11 10 10 10 9 9 9 10 10 10
6 6 5 6 7 8 9 8 9 9 8 6 4 5 6 4 7 6 5 6 6 5 4 4 4 4 4 5 5 6 8 9 10 11 11 10 10 11 11 10 9 9 10 10 10 11 14 16 18 19 21 23 23 23 22 22 21 21 20 20 19 19 19 19 18 18 16 16 16 16 16 17 17 16 15 15 14 13 13 13 13 13 12 11 10 11 11 11 12 12 11 11 11 12 12 11 11
5 6 5 4 4 6 7 8 10 11 9 8 7 7 5 6 6 5 4 6 6 5 4 4 4 4 4 4 4 5 7 9 10 11 11 10 10 10 11 10 9 9 10 11 12 11 13 16 19 20 20 21 22 22 21 21 21 21 21 21 20 20 20 20 20 19 18 17 17 18 17 17 17 16 15 15 15 14 14 14 14 13 12 11 11 11 11 12 13 13 13 14 13 14 14 13 12
4 5 4 4 5 6 7 8 12 12 7 10 11 6 2 5 5 4 2 4 5 4 4 4 4 3 3 3 4 4 5 7 9 11 11 10 10 10 10 10 9 9 10 11 12 12 14 16 18 21 20 20 22 21 21 21 21 21 22 22 21 22 22 22 21 20 19 19 18 18 18 17 17 16 15 15 15 15 15 15 14 13 12 12 12 12 12 13 14 15 15 17 16 16 15 14 13
4 4 4 4 5 5 6 7 10 13 6 6 12 6 3 5 5 4 2 3 4 5 4 4 4 3 3 3 3 3 3 5 7 9 10 9 10 10 9 9 9 9 10 11 12 13 16 16 17 19 20 20 21 21 21 21 20 20 21 22 23 24 23 23 22 21 21 20 19 19 18 18 17 16 15 15 16 16 16 16 15 14 13 13 13 12 13 14 15 16 16 18 19 18 17 15 14
3 4 4 5 6 6 6 4 3 6 7 6 10 6 4 4 6 4 2 2 4 4 4 4 3 2 3 3 3 3 2 3 5 7 8 8 9 8 7 7 8 9 9 11 13 14 16 17 17 18 19 20 21 21 21 20 20 21 21 22 23 24 24 24 23 22 21 20 20 19 18 18 18 17 16 16 16 17 17 16 16 15 14 14 14 14 14 15 16 17 17 17 19 20 18 17 14
2 3 3 4 6 8 7 1 6 7 0 3 3 3 5 5 6 4 2 2 4 4 4 3 3 3 3 3 3 3 2 3 4 5 6 7 8 7 7 6 7 9 9 11 14 15 16 17 17 18 18 19 21 22 22 22 22 21 22 22 23 24 24 24 24 22 21 21 20 19 19 18 18 18 17 17 17 17 17 17 17 16 16 16 16 16 16 15 16 18 18 17 19 21 20 18 14
6 6 5 6 5 5 3 3 6 9 6 5 4 3 5 4 4 3 2 2 3 4 4 3 3 3 3 2 3 3 3 2 2 3 5 6 7 7 7 7 7 8 9 12 14 15 17 17 18 19 19 20 21 22 23 24 24 23 23 23 23 23 24 24 24 23 22 21 20 19 19 19 19 19 19 18 18 18 17 17 18 17 17 16 17 18 18 17 16 16 17 17 18 19 20 18 14
6 5 4 6 7 3 2 3 4 6 5 3 4 4 2 1 1 2 1 2 4 5 4 3 3 3 3 3 3 3 3 3 3 4 4 5 7 8 7 8 8 9 9 11 14 15 16 17 18 19 19 20 22 23 23 25 25 23 22 23 23 23 24 24 24 23 23 22 21 20 19 19 19 19 20 19 19 18 17 17 18 18 18 17 18 19 19 18 17 15 15 16 18 20 22 22 17
4 3 4 5 6 5 0 3 4 5 3 1 4 2 2 4 3 3 3 2 5 5 5 5 5 4 4 4 3 3 3 4 4 4 4 5 6 7 9 9 8 8 8 11 13 14 15 16 17 17 18 19 21 22 22 23 23 22 22 22 23 24 24 25 26 25 23 23 22 21 20 19 19 19 19 19 19 18 17 17 18 18 18 18 18 18 18 18 18 17 16 16 17 19 22 25 23
3 3 3 5 5 5 2 4 5 4 2 1 2 3 4 6 6 5 4 4 3 2 3 4 6 6 5 5 5 4 4 4 5 4 4 5 5 7 9 10 9 8 9 11 12 14 15 16 16 16 17 17 19 20 21 21 22 23 22 23 25 26 25 25 26 25 24 23 23 22 21 19 19 20 19 18 18 18 17 17 18 18 18 18 18 18 18 19 20 20 19 17 16 17 18 23 26
2 3 3 4 5 5 3 3 5 4 1 1 3 4 4 4 3 5 6 5 3 2 3 5 4 6 7 7 6 6 6 6 6 5 5 6 6 6 8 11 11 9 10 11 12 13 14 16 17 17 17 17 18 20 21 22 24 26 25 25 26 27 25 26 27 26 24 24 23 22 20 19 19 19 19 18 18 18 17 18 17 17 17 17 18 19 19 20 20 20 20 18 17 18 17 19 22
4 5 4 5 6 4 2 1 1 2 1 1 2 5 4 4 6 7 5 5 5 4 3 4 5 5 6 7 6 6 7 6 6 7 7 7 7 6 7 10 12 11 10 11 12 14 14 15 16 16 18 19 20 21 23 25 26 27 26 25 25 24 24 24 26 25 23 23 23 22 20 19 19 19 18 18 17 17 18 18 17 17 17 17 18 19 20 20 20 20 20 19 18 18 16 17 18
4 5 6 8 8 4 1 1 1 3 3 3 4 3 4 5 9 8 5 6 7 6 6 6 5 6 6 6 6 7 7 7 7 7 7 8 8 7 6 7 10 11 10 11 12 13 14 15 16 16 17 19 20 21 23 23 22 22 21 20 19 20 22 22 22 23 22 22 21 21 19 18 19 19 18 18 17 17 17 18 18 18 18 18 19 20 20 20 20 19 20 19 18 17 16 18 19
3 3 4 5 6 5 3 3 1 1 4 2 4 3 4 1 5 7 6 7 7 7 7 9 7 7 8 7 6 6 7 7 7 7 8 8 8 8 7 6 7 8 9 11 13 15 16 16 17 19 20 21 21 20 22 21 18 18 20 21 20 20 21 20 20 21 22 21 20 20 19 18 18 18 18 18 17 17 17 18 18 18 19 19 19 20 21 20 19 18 18 18 18 17 17 19 19
3 2 6 5 4 4 4 4 3 4 4 2 3 4 5 4 4 2 6 5 5 7 9 10 9 10 10 9 8 7 7 7 6 6 8 9 9 9 8 6 6 7 8 9 11 14 18 20 22 22 22 24 23 21 22 22 19 20 22 24 24 23 22 21 21 22 22 21 21 20 19 18 18 18 18 17 17 17 17 18 18 18 18 19 20 20 20 19 19 18 17 18 18 19 18 17 17
2 5 6 4 4 5 4 3 4 4 4 4 4 4 3 6 2 3 4 5 7 11 13 13 12 12 11 11 10 8 7 7 7 7 8 10 10 10 9 8 6 7 8 9 10 13 17 21 25 26 24 23 22 20 22 23 23 22 23 25 26 26 25 22 21 22 20 20 20 20 19 18 17 17 17 16 16 17 17 17 18 18 18 18 18 19 18 18 18 18 18 18 19 19 17 15 16
2 4 5 4 4 5 4 4 4 4 4 6 7 5 3 6 3 3 3 5 9 12 13 12 12 11 11 11 10 9 8 7 8 9 10 11 11 11 10 10 8 7 9 11 13 16 18 19 22 26 26 24 22 20 21 22 22 22 22 24 26 26 25 23 21 20 19 18 18 19 17 16 15 15 15 15 15 15 16 16 17 18 18 17 17 18 18 17 16 17 17 17 17 17 16 14 15
2 2 3 4 4 4 3 4 3 3 4 8 10 8 6 6 4 5 5 7 10 11 9 9 11 11 11 10 10 10 9 8 8 9 12 14 13 12 12 11 9 8 10 13 15 16 18 19 21 24 25 26 25 23 22 22 22 22 21 23 25 24 23 21 20 19 18 18 18 17 16 15 14 13 14 14 13 13 15 16 17 17 17 17 17 17 18 17 15 15 15 15 15 16 15 14 14
1 1 2 3 3 3 2 3 3 3 5 8 11 10 9 8 5 5 8 11 14 12 10 13 15 15 13 11 11 11 10 10 9 9 11 14 14 14 13 12 11 10 11 13 15 16 18 19 20 22 23 25 26 24 23 23 23 23 22 22 22 22 21 20 19 18 18 17 17 16 14 13 12 12 13 13 12 12 14 15 16 17 17 17 16 16 17 16 13 13 14 13 13 16 15 14 14
2 2 2 2 2 2 2 3 3 4 7 9 9 9 8 8 9 11 12 12 13 13 12 15 19 18 16 14 13 11 10 10 10 8 9 11 12 13 14 14 13 12 12 13 14 16 18 19 20 22 22 24 26 26 25 24 23 23 22 22 21 20 20 19 19 18 16 16 16 14 13 12 12 12 13 12 11 12 14 15 16 16 16 16 15 15 16 15 13 12 13 13 13 15 15 14 13
4 4 3 3 2 2 3 4 3 4 7 10 8 7 5 6 9 15 18 17 15 13 12 14 18 20 19 17 15 11 10 10 9 8 8 8 11 13 14 14 14 13 14 14 15 16 18 18 20 22 22 23 25 26 26 25 23 22 22 21 20 19 19 18 18 17 15 15 15 14 13 13 12 12 12 12 12 13 14 15 15 16 15 14 14 14 14 15 13 12 13 13 13 15 14 12 10
5 5 4 3 2 2 2 2 3 3 5 6 5 5 5 5 5 10 13 13 14 13 11 12 14 15 15 14 14 13 12 11 9 9 9 10 14 15 14 15 14 15 16 16 16 17 18 18 19 22 22 22 25 27 27 26 24 23 21 20 19 19 18 18 17 16 16 16 15 14 13 13 13 12 12 12 13 14 15 14 14 15 14 13 13 13 13 14 13 12 12 12 12 13 12 10 8
4 4 4 4 2 1 2 3 4 4 5 4 3 3 5 4 2 3 4 4 7 10 9 11 12 12 11 11 13 14 12 12 11 10 10 13 17 17 16 17 16 16 17 17 17 19 19 19 21 22 20 21 24 26 26 26 25 23 22 21 20 19 18 18 18 17 17 16 16 16 15 14 14 14 13 13 14 15 15 14 13 13 13 13 12 11 12 13 12 12 11 10 10 12 11 9 7
1 2 3 2 0 1 2 4 4 4 5 4 5 5 5 3 3 4 3 2 6 8 9 13 13 14 15 13 13 14 13 13 13 11 12 15 19 19 19 19 18 19 19 18 18 19 20 21 24 23 19 19 21 24 25 24 24 23 21 21 20 20 19 19 19 19 18 17 17 17 16 15 15 14 14 14 14 14 14 13 13 12 12 12 11 11 11 12 12 12 10 9 10 11 10 9 8
1 2 1 2 1 0 1 3 3 3 6 4 6 8 5 4 4 3 6 6 7 7 8 12 13 15 16 14 13 14 14 14 13 12 12 15 18 19 20 20 20 21 20 19 19 19 20 21 24 24 21 19 19 22 23 23 23 23 22 21 21 20 20 20 20 20 19 18 17 17 16 15 15 14 14 14 14 13 13 12 12 12 11 11 11 11 11 11 11 10 9 9 10 10 10 8 8
2 1 1 1 2 1 1 2 3 4 5 3 4 7 5 6 5 4 8 10 9 9 8 10 13 16 16 14 14 14 14 13 12 12 12 14 18 19 21 21 21 22 21 20 20 20 20 20 22 24 22 20 20 21 23 22 22 23 22 22 22 21 21 21 20 20 19 18 17 16 16 15 14 14 13 13 13 13 12 12 11 11 11 11 11 11 11 11 10 9 9 9 10 10 9 7 7
1 2 0 1 1 2 2 2 3 3 4 4 3 3 3 6 5 7 13 14 14 13 11 12 15 16 15 14 14 14 14 13 12 13 12 14 19 21 22 23 24 25 24 22 22 22 22 21 22 23 22 21 21 21 23 23 23 23 23 22 22 22 22 21 20 19 19 18 17 16 15 15 14 14 14 13 13 13 12 12 11 11 11 11 11 10 10 10 9 10 10 10 9 8 7 6 5
3 2 3 3 2 1 3 3 3 3 4 4 3 3 4 4 2 4 9 13 16 16 15 14 14 14 14 14 15 14 14 13 12 13 12 15 20 22 23 24 24 24 24 24 23 23 23 23 23 24 24 24 23 22 23 24 24 23 23 23 23 22 21 20 19 19 18 18 17 16 16 15 15 14 14 13 13 13 12 12 11 11 11 11 10 10 9 9 9 10 9 8 7 6 5 4 3
3 4 4 5 5 3 4 4 3 3 3 4 3 5 6 3 0 2 4 6 13 16 15 13 13 14 14 13 15 15 13 13 12 12 12 15 20 22 23 24 24 24 24 24 24 24 24 25 25 26 26 26 26 25 25 25 25 24 24 24 23 22 20 20 19 19 19 18 17 17 16 15 15 15 14 13 13 12 12 11 11 11 10 10 9 9 8 8 9 9 7 5 4 4 3 3 3
Wind_Direction
315 311 310 318 312 301 289 261 250 235 212 251 249 256 252 223 82 255 183 59 37 53 42 50 47 34 43 98 115 87 49 34 26 60 83 143 162 154 134 131 135 136 139 143 144 143 141 141 139 134 131 132 135 139 143 143 142 141 137 137 139 134 132 129 126 127 127 127 125 123 121 119 117 114 112 109 105 100 98 96 96 91 84 78 73 72 72 73 74 78 80 78 73 66 65 61 59
318 311 309 321 301 283 294 240 254 258 214 238 233 245 257 102 72 260 62 66 66 56 38 46 61 58 58 122 124 80 54 49 59 77 96 148 161 138 129 132 135 137 138 141 141 141 141 139 138 134 132 133 133 136 140 140 140 142 140 141 141 138 137 134 129 131 131 127 125 123 122 119 115 111 108 107 105 102 101 98 93 83 75 70 67 68 68 73 76 79 81 77 73 71 69 66 62
315 315 316 324 290 238 281 271 253 265 239 241 228 222 184 109 169 190 72 73 72 71 58 59 70 35 358 117 71 55 80 73 84 87 107 156 156 131 132 133 136 138 136 138 139 140 140 138 137 135 134 134 134 134 133 136 140 142 141 144 143 140 140 139 137 134 131 127 125 124 122 118 115 112 110 110 107 105 102 94 85 77 72 69 70 72 72 76 81 84 82 76 75 72 67 61 57
313 315 308 312 291 216 255 245 236 260 259 259 254 226 158 149 119 84 82 78 75 83 72 99 86 25 34 77 76 80 95 89 104 110 134 158 142 134 136 135 135 134 135 138 138 142 141 141 139 135 135 136 136 132 132 139 146 144 140 144 142 139 138 140 142 138 134 131 128 126 123 119 115 115 113 109 105 99 94 88 83 78 73 71 71 71 71 75 80 85 84 76 72 70 63 59 57
311 301 282 278 287 263 255 243 240 236 247 257 268 316 97 130 95 87 97 89 87 65 51 102 95 85 63 54 42 94 104 118 122 131 152 147 140 137 137 137 135 132 135 137 140 143 143 143 141 137 135 136 136 132 138 145 146 142 139 141 140 140 139 140 142 141 141 136 134 133 127 120 117 116 110 103 99 93 88 85 83 77 71 70 71 70 70 71 71 74 78 74 69 66 62 60 57
308 292 259 246 279 321 270 247 243 233 240 255 267 16 49 59 71 92 104 96 97 69 51 93 92 109 92 53 44 61 79 120 129 137 143 142 143 139 137 139 136 134 134 137 142 144 145 144 142 140 134 134 135 135 144 147 143 139 136 138 139 140 139 138 139 141 142 138 138 134 127 122 118 114 109 103 98 92 84 80 76 69 65 69 71 71 72 71 67 67 67 67 64 60 59 58 54
300 293 235 220 268 273 248 247 247 251 243 249 265 275 90 73 50 112 124 115 116 121 138 293 122 102 110 121 68 57 34 68 130 126 132 142 144 139 140 141 134 134 134 136 142 144 146 145 144 140 135 136 135 139 149 147 143 138 135 136 134 135 134 133 134 137 137 135 132 128 126 123 118 114 109 105 99 91 82 77 72 69 68 70 72 73 76 74 69 67 62 62 61 57 57 53 47
276 280 229 212 233 215 227 245 244 254 255 251 264 272 100 87 19 258 148 153 167 162 159 184 171 116 116 121 88 84 49 71 115 120 135 143 142 140 142 140 134 135 133 136 143 145 147 147 146 142 139 137 136 145 153 145 140 136 134 133 130 130 129 129 131 133 133 133 130 128 129 126 125 123 116 110 104 96 90 87 85 84 77 70 72 77 81 77 67 65 61 57 55 51 53 50 46
246 231 282 237 231 230 228 238 242 245 253 261 266 255 103 97 28 304 218 169 153 160 159 163 197 132 104 93 92 120 68 90 113 125 141 143 142 142 142 140 137 133 132 139 144 146 148 149 146 142 140 138 143 153 150 140 136 133 132 129 126 125 125 127 130 131 134 135 134 134 132 131 135 133 126 117 107 104 101 94 91 88 78 74 83 85 84 77 64 58 57 53 47 42 42 42 42
230 205 260 234 230 241 233 231 238 242 246 255 256 246 135 126 144 254 270 195 146 158 133 119 151 125 105 97 106 122 109 111 121 136 143 144 145 142 143 141 138 135 135 141 144 146 148 148 143 140 141 143 152 153 143 139 134 130 127 124 121 119 120 123 127 131 135 134 135 137 134 133 135 132 128 121 115 114 110 100 92 86 78 82 91 92 85 77 65 49 52 55 43 37 36 36 37
227 199 243 243 226 228 237 234 232 238 245 251 245 239 237 135 155 218 245 252 164 146 111 110 154 123 104 95 97 113 129 132 131 143 147 147 146 144 145 140 140 138 137 140 142 147 146 145 143 142 145 148 152 148 141 138 133 128 125 124 122 121 121 122 124 126 129 128 130 133 131 130 129 130 129 127 126 122 115 104 95 88 82 85 86 89 80 70 60 42 37 42 41 40 39 37 36
252 202 200 235 234 226 234 240 240 237 232 245 245 224 213 146 171 214 207 231 209 147 134 153 159 127 118 99 100 130 138 144 141 147 150 149 148 147 144 139 139 137 137 140 141 145 147 147 147 147 148 147 146 143 139 135 133 131 129 130 129 129 129 130 130 128 127 127 130 132 132 133 132 131 127 123 117 105 95 84 81 76 72 74 70 66 63 55 45 41 37 43 47 43 38 36 35
255 228 205 221 241 247 240 239 243 249 231 232 238 204 196 189 188 208 207 213 212 191 150 135 148 123 107 99 109 139 146 150 145 149 153 151 147 145 144 140 137 135 136 140 140 143 146 149 150 150 148 144 142 139 137 137 137 136 136 135 134 135 135 138 138 136 134 134 137 136 135 136 133 126 120 110 95 87 83 79 82 79 74 70 67 63 62 60 54 56 55 55 53 49 49 46 42
258 257 251 233 232 239 249 253 240 249 244 238 232 180 191 210 195 203 212 205 89 96 77 45 73 110 95 122 131 144 158 152 147 152 156 150 145 146 146 142 139 136 135 138 141 142 143 148 153 148 145 144 140 139 139 140 141 140 138 134 131 129 131 137 139 138 138 141 144 141 138 136 132 128 121 111 103 99 91 88 91 88 84 76 73 71 67 67 66 68 65 62 61 60 58 50 47
283 268 275 257 242 234 232 244 252 254 242 244 232 163 178 206 196 204 201 100 67 64 80 36 26 93 106 141 139 158 158 152 149 152 153 145 142 146 143 140 141 136 136 140 140 141 142 147 150 144 143 145 141 140 141 143 144 138 133 128 126 123 123 127 128 128 128 132 134 131 128 124 120 117 112 110 105 99 95 95 96 93 90 87 84 81 78 77 75 72 59 56 59 58 54 45 44
277 288 283 250 246 242 225 226 242 256 249 247 235 161 165 146 63 159 47 90 103 52 60 47 36 46 43 39 332 165 153 153 152 150 148 142 141 146 144 139 140 138 138 140 139 142 145 147 144 139 141 142 140 141 143 147 142 133 127 120 119 119 117 119 120 118 116 114 112 107 103 104 107 108 106 103 100 96 97 97 98 98 94 96 91 82 78 75 69 55 36 32 35 38 47 44 40
276 265 253 241 237 232 232 227 221 244 252 259 259 173 163 139 67 66 49 104 121 79 67 68 66 61 52 22 340 125 149 153 150 148 140 137 140 145 145 140 140 141 141 142 143 144 147 148 143 142 143 140 144 146 147 147 139 131 122 109 108 115 115 115 115 111 109 107 105 101 95 96 96 101 99 93 99 101 101 101 102 103 101 100 87 66 52 51 38 24 24 30 33 38 47 47 37
265 222 228 234 231 225 235 248 249 260 251 256 260 164 170 164 122 157 193 135 120 101 89 83 74 58 39 24 14 56 141 143 133 141 132 137 151 146 144 141 138 141 146 146 143 145 149 148 147 150 146 146 151 151 153 149 141 137 125 113 113 118 115 111 112 111 111 111 110 101 94 102 104 109 108 103 113 114 111 111 106 103 103 95 62 43 33 33 26 24 35 38 41 43 43 43 33
240 231 233 232 234 242 245 255 267 289 297 283 266 172 201 198 150 163 191 162 131 117 101 85 73 41 19 16 20 38 87 109 114 136 128 130 145 136 133 138 140 144 150 147 143 145 148 149 153 156 153 154 154 156 161 151 145 146 130 117 122 127 125 124 127 128 133 133 129 117 116 134 136 138 137 133 137 131 129 108 78 47 6 12 20 35 45 40 30 35 45 43 41 36 35 39 30
237 240 240 237 242 260 261 262 284 342 352 329 308 185 173 18 109 169 178 121 86 97 70 64 65 25 7 5 12 28 54 80 85 95 92 78 82 86 86 108 132 146 153 153 148 146 148 152 155 158 159 159 158 163 164 154 155 157 143 132 138 148 147 146 147 146 149 149 144 135 134 141 144 146 147 156 141 99 87 51 35 20 14 42 47 37 52 44 40 46 46 43 37 35 38 37 31
218 227 243 253 249 255 269 289 14 6 348 343 321 257 117 46 44 14 79 106 74 66 33 35 53 27 7 5 11 22 42 61 64 69 72 63 67 73 71 76 105 136 143 144 144 142 147 154 154 158 160 159 161 161 159 162 165 157 153 151 154 162 161 158 156 150 145 139 130 115 112 121 128 127 119 125 101 73 69 58 44 41 43 79 83 51 58 48 41 43 45 48 43 43 43 34 33
246 241 254 273 272 275 292 341 37 360 332 344 322 319 106 75 49 19 27 101 99 60 37 33 47 38 18 14 22 28 36 47 51 55 60 57 55 65 72 78 96 114 112 115 128 131 136 144 150 158 160 161 161 159 160 166 165 156 157 160 161 163 164 167 164 155 145 130 120 107 109 116 122 129 114 104 101 93 95 86 70 65 54 79 90 71 72 56 38 29 39 52 54 43 37 40 38
262 255 260 271 277 287 294 326 27 356 333 332 324 352 75 91 74 41 50 73 81 71 56 48 49 43 36 34 35 37 40 47 49 48 54 52 48 56 63 75 89 87 86 100 120 129 132 135 147 157 159 161 160 162 164 162 162 161 164 166 167 167 165 168 165 160 152 138 126 115 122 127 121 134 130 119 118 118 115 106 86 73 61 75 80 77 74 64 52 49 47 46 47 33 24 46 41
290 276 280 286 287 293 299 320 4 345 323 319 355 25 19 79 95 65 64 71 77 73 63 63 59 50 45 41 40 40 40 47 51 49 55 52 47 54 60 71 81 81 83 91 112 130 129 122 143 156 156 158 157 162 163 158 159 161 165 168 169 170 168 168 164 162 156 150 142 128 129 131 125 132 134 127 124 118 105 96 89 85 91 89 86 85 78 70 72 76 65 46 41 29 19 45 42
279 281 290 295 290 297 324 332 333 321 307 306 36 62 36 61 90 76 70 70 71 71 66 68 62 53 49 42 39 39 37 39 44 46 52 53 54 62 63 66 77 82 81 84 105 123 118 112 135 150 154 155 152 156 159 156 157 157 162 165 164 165 167 167 163 162 158 159 151 135 132 131 131 135 129 122 120 115 107 101 94 91 93 90 87 86 76 68 73 78 71 56 48 37 27 47 50
308 316 305 301 295 308 333 322 313 311 296 284 24 89 87 99 96 70 73 84 78 74 64 62 62 56 49 45 41 39 38 32 31 40 48 50 54 58 54 57 69 71 71 83 100 117 116 116 134 144 150 154 153 153 152 152 154 153 155 157 157 159 158 155 154 152 152 155 145 132 133 131 130 133 128 124 123 121 119 113 103 97 92 89 86 80 71 65 72 70 59 54 53 41 36 59 58
326 327 310 300 299 308 312 304 312 310 291 275 263 111 113 134 116 71 95 108 99 81 65 57 61 60 53 50 45 40 41 30 22 32 40 41 43 42 41 47 57 60 65 83 93 111 120 119 133 144 148 154 160 157 149 147 149 149 147 147 146 148 149 146 145 143 143 144 137 131 133 130 129 133 133 132 130 126 124 116 106 100 93 89 85 81 76 69 77 74 58 50 50 45 47 65 61
316 311 302 293 287 282 268 267 283 292 289 277 266 127 120 100 58 105 120 117 108 86 72 62 56 60 58 54 51 44 42 33 25 30 34 32 32 31 32 38 47 55 58 71 89 110 120 119 128 142 149 152 158 158 152 148 146 146 145 142 140 143 145 143 139 136 136 136 136 139 138 132 131 134 133 128 124 121 119 112 103 97 89 87 88 89 87 80 83 83 74 64 59 58 59 67 64
301 297 293 290 285 273 255 239 234 235 254 266 261 148 191 182 98 113 129 119 109 100 84 70 61 58 58 58 56 50 43 38 34 34 31 29 30 29 29 34 49 59 55 65 94 111 118 118 123 138 148 151 153 154 153 150 147 146 146 144 142 145 144 142 137 133 135 138 139 144 140 130 128 128 124 118 116 117 116 111 104 94 86 88 95 98 94 87 84 84 83 73 66 63 62 67 66
275 269 255 275 282 266 248 229 210 211 230 235 203 215 216 149 113 121 132 134 128 120 100 77 74 65 58 61 61 57 46 41 40 37 32 30 30 29 26 33 56 68 63 70 89 106 116 119 123 133 143 148 150 152 153 152 150 148 148 148 146 148 145 141 138 134 135 136 136 137 132 125 124 123 119 114 114 115 114 110 104 95 90 91 97 101 95 87 79 75 72 64 62 57 54 56 56
266 259 234 238 264 264 247 216 195 199 218 203 192 235 221 121 116 134 134 152 151 132 118 98 89 79 66 66 64 67 55 46 42 38 33 32 32 30 25 27 52 73 74 74 82 99 112 118 122 127 135 143 146 148 149 151 152 151 149 148 148 147 143 138 134 131 132 132 130 127 124 121 121 120 118 116 114 114 112 108 101 96 96 94 96 96 90 85 76 70 66 58 55 53 53 51 51
246 258 246 218 236 261 264 236 199 190 208 196 193 226 186 128 124 131 135 173 163 132 130 121 104 100 89 77 70 73 67 58 46 37 32 31 34 32 25 21 38 67 80 82 87 100 108 113 123 127 129 135 140 143 145 147 149 149 147 145 144 142 138 132 129 129 130 130 126 123 120 118 117 116 116 116 113 110 107 103 100 98 98 94 93 91 87 83 74 68 62 53 48 48 49 49 54
219 233 251 254 250 253 257 243 196 181 187 200 205 208 99 128 126 116 131 179 167 132 133 129 108 116 112 92 76 70 67 65 50 37 32 33 37 35 31 24 30 60 83 95 99 106 110 110 120 128 129 132 135 138 141 143 144 145 145 143 139 136 132 127 126 129 129 125 123 119 117 117 115 112 112 113 109 104 102 100 98 95 92 91 89 86 84 80 73 67 61 52 44 43 45 45 51
236 225 232 253 259 269 262 231 172 194 190 192 214 199 89 111 126 118 124 172 181 143 135 136 116 127 122 107 97 76 55 53 45 40 37 38 43 42 44 37 39 61 82 102 105 108 115 115 117 122 128 133 136 137 137 137 139 139 139 138 135 131 127 125 126 127 124 122 120 116 115 115 114 112 108 107 105 101 99 97 93 90 87 86 83 82 81 78 76 68 60 53 44 41 42 40 42
346 323 288 281 256 261 276 309 14 346 139 122 249 180 114 121 126 114 111 162 202 168 138 128 127 135 121 118 122 103 83 61 39 42 49 55 54 48 54 59 61 63 76 101 108 108 114 118 120 122 127 132 135 137 136 133 132 130 129 131 129 124 122 122 125 124 119 119 117 114 114 113 112 110 105 103 102 99 99 95 90 87 84 83 80 78 76 74 76 69 60 53 47 44 41 38 38
13 345 320 320 298 265 307 27 22 6 23 45 22 81 113 120 111 93 108 156 218 192 144 132 156 150 133 140 135 122 114 93 70 57 58 70 75 68 61 65 77 77 80 97 106 107 109 115 120 121 125 130 132 133 133 131 126 121 120 120 119 116 117 119 120 120 116 114 114 113 111 110 110 108 104 102 99 98 97 94 90 85 81 79 77 73 69 67 68 68 61 48 45 47 43 40 40
9 337 312 303 304 302 32 48 29 25 25 43 64 77 106 122 33 338 316 181 205 205 179 187 193 176 183 179 152 132 122 119 124 101 75 74 85 95 85 71 78 88 92 97 103 102 104 112 116 117 121 129 133 130 129 128 124 121 117 115 112 110 114 116 115 114 112 110 111 112 107 106 108 106 104 102 98 96 94 93 91 85 80 76 75 71 68 67 66 70 68 53 43 42 41 37 35
352 305 304 292 289 290 286 76 37 38 47 124 121 132 215 205 221 277 298 243 207 206 205 207 196 186 200 196 189 169 133 135 147 126 105 95 88 102 105 92 80 79 90 100 103 102 104 110 112 115 121 128 131 131 131 129 127 125 120 116 113 109 110 111 110 109 109 108 108 109 103 101 104 102 102 103 99 96 91 91 88 85 81 76 77 75 72 71 66 66 67 62 48 41 40 35 34
317 290 293 289 285 286 303 58 29 27 48 217 186 219 229 200 199 211 230 239 233 238 246 232 200 187 198 201 198 187 170 170 168 150 131 122 108 109 112 111 104 91 93 99 103 108 109 108 109 113 119 120 124 129 129 128 129 128 121 116 113 109 105 105 107 107 108 107 104 105 101 97 100 100 102 103 101 97 91 89 86 84 81 76 76 73 72 69 65 62 60 63 58 45 43 37 36
240 247 264 278 282 285 305 22 16 24 59 303 304 284 243 180 197 223 216 221 239 255 280 288 241 192 189 195 195 191 189 190 180 168 153 143 133 125 123 123 123 116 108 101 101 108 111 112 112 114 116 114 116 119 121 121 123 123 118 113 109 106 102 103 105 103 104 104 101 101 97 94 97 99 101 101 102 99 93 90 86 84 82 78 75 70 68 66 63 62 56 59 58 48 46 39 37
233 225 229 258 274 293 334 48 15 2 344 229 314 300 270 190 209 231 211 201 220 221 233 277 264 216 186 176 184 194 195 191 184 177 167 159 150 139 138 139 139 136 128 116 106 104 108 114 118 120 120 118 117 116 116 118 118 117 114 110 107 104 100 99 99 96 96 98 96 95 91 90 95 97 98 98 99 97 93 91 87 84 83 80 78 71 68 66 65 65 58 56 58 54 52 46 43
254 227 223 236 246 264 326 241 255 341 297 210 170 259 271 200 212 224 182 181 206 204 207 221 231 228 207 182 184 191 190 189 179 172 171 164 154 145 144 148 145 144 145 140 132 123 115 114 119 126 126 124 122 120 120 120 120 120 117 113 110 106 98 92 92 93 93 93 93 94 90 88 92 93 95 94 94 94 92 92 87 85 83 79 79 75 71 68 65 67 62 58 60 63 63 54 48
266 274 283 263 245 237 244 265 282 283 273 233 159 228 277 264 240 226 173 184 207 196 207 213 205 213 210 196 194 187 185 188 174 167 172 167 159 156 153 153 148 146 151 149 148 149 143 132 127 127 130 130 129 127 126 124 120 124 125 120 112 104 97 94 97 98 98 97 95 96 93 88 87 88 90 90 91 91 91 91 88 86 83 79 78 74 72 69 65 68 69 65 62 65 66 58 48
235 356 354 340 306 263 235 237 235 242 272 295 173 219 265 276 273 216 152 176 225 219 219 215 202 204 204 197 195 189 184 182 173 172 178 176 173 165 155 149 148 149 153 151 147 149 151 151 146 138 132 133 136 136 136 135 132 131 131 127 119 110 105 103 104 102 101 101 98 94 90 87 86 84 84 87 88 88 88 90 88 86 84 80 78 73 70 70 69 70 73 74 68 62 63 63 56
276 4 355 342 320 305 283 249 236 253 278 274 222 200 249 258 257 70 129 185 237 234 224 218 207 199 197 197 196 194 188 178 176 180 179 179 177 168 153 145 142 146 150 148 145 145 146 148 151 147 141 137 138 139 137 138 139 137 133 129 123 119 117 115 113 108 104 103 98 94 89 86 87 84 80 82 85 85 85 88 90 87 84 81 81 79 73 71 70 68 68 71 71 63 59 64 63
264 335 334 331 310 301 294 266 251 260 255 258 241 191 217 264 228 136 157 208 237 235 226 218 209 201 195 192 188 188 188 179 180 178 172 173 171 161 150 142 140 144 149 147 144 146 144 143 145 146 144 143 143 143 139 136 138 138 133 129 124 122 123 122 118 113 109 105 98 94 93 91 90 87 83 79 80 83 84 86 89 88 86 85 87 86 78 71 69 69 66 67 72 68 60 62 65
216 272 316 317 278 252 260 249 240 271 253 248 242 200 196 253 232 177 189 210 217 220 218 203 199 202 195 187 184 182 177 173 177 173 166 165 162 154 147 142 142 143 148 149 146 147 146 144 143 140 141 143 144 146 144 141 142 141 136 132 127 125 126 124 118 113 112 110 104 101 102 100 97 96 94 87 81 83 86 87 88 89 89 89 87 87 81 71 68 72 71 69 75 73 62 59 64
223 241 291 306 269 218 249 242 207 246 252 243 234 204 199 232 239 208 210 215 210 208 203 188 188 196 191 185 187 182 173 169 172 170 163 161 158 155 153 149 147 146 149 151 150 151 149 146 144 140 139 143 144 145 147 145 144 141 138 135 131 131 132 129 124 120 118 116 115 113 110 107 104 103 101 96 90 89 91 91 91 91 90 88 86 86 86 77 70 75 76 71 76 76 64 55 55
211 214 218 252 249 195 224 223 203 224 240 240 219 194 204 232 246 242 233 229 219 212 206 189 183 186 187 186 186 180 173 168 167 166 162 163 163 163 161 156 153 153 154 157 157 155 151 148 146 143 143 145 146 147 148 147 143 140 139 138 136 137 136 133 129 127 124 124 124 121 117 116 114 109 105 101 97 96 95 93 92 91 88 88 88 87 90 85 74 75 78 72 73 75 66 54 48
208 199 183 192 210 222 229 228 235 232 245 247 210 184 220 238 238 235 233 235 226 213 206 191 184 184 185 183 179 173 167 165 165 163 161 168 170 168 164 159 158 158 159 161 162 158 153 151 149 146 146 148 148 148 149 148 145 143 143 143 143 143 141 138 135 133 132 131 131 129 126 126 122 118 115 112 108 102 98 95 93 91 89 89 90 90 92 89 79 76 76 72 71 73 68 58 49
216 202 194 231 243 244 242 239 250 253 275 265 190 167 211 213 222 225 232 239 222 205 192 180 180 183 182 175 170 167 166 164 166 166 169 175 173 169 165 161 161 162 163 163 163 160 156 156 154 150 149 151 150 150 151 150 148 148 148 148 148 149 148 145 141 139 138 135 133 133 132 133 132 129 127 124 116 107 100 97 96 94 93 91 91 93 93 90 82 79 75 73 76 74 67 58 51
237 187 190 252 268 233 258 275 270 273 297 280 196 213 224 207 236 227 254 271 192 178 163 158 165 167 168 172 171 169 169 167 168 168 173 175 172 168 166 166 164 164 166 166 165 164 161 161 159 153 152 155 153 151 151 151 151 152 154 154 154 155 153 149 144 142 142 139 139 141 142 142 140 135 128 122 116 110 103 100 99 97 96 95 94 96 97 91 85 78 71 72 83 80 67 51 43
269 181 190 253 254 137 268 277 276 267 278 256 203 241 252 237 259 197 172 143 151 153 152 156 161 160 166 178 178 172 170 170 171 170 172 173 171 169 168 169 167 166 168 168 168 168 166 165 161 156 157 159 155 152 152 153 154 156 158 159 159 158 156 152 148 146 145 145 146 146 144 142 139 132 124 119 114 111 107 105 104 102 100 100 99 99 99 94 89 81 67 69 83 84 74 52 34
119 228 243 339 339 348 258 278 292 265 266 257 203 223 227 213 248 183 162 173 162 162 163 159 159 162 172 182 180 175 171 169 168 167 168 168 169 169 167 167 167 167 168 168 168 169 168 168 164 160 160 162 157 154 152 154 156 156 156 158 159 158 156 153 150 148 146 146 145 144 142 140 137 130 124 120 116 114 112 112 111 108 106 105 102 102 100 95 93 88 76 76 82 80 75 53 31
160 272 292 19 306 275 176 229 275 263 261 268 222 232 229 215 225 178 178 192 182 175 172 167 169 173 178 181 179 175 170 167 166 165 165 165 167 168 164 163 164 165 167 167 167 168 168 169 167 163 162 163 162 158 155 156 158 157 156 156 157 156 154 152 149 148 147 146 145 144 143 141 136 131 127 124 122 121 121 120 118 114 112 108 105 104 101 95 93 92 88 82 77 73 70 51 31
155 336 284 174 246 268 239 223 265 274 273 288 264 242 240 242 232 187 192 196 185 178 179 183 185 183 181 177 177 177 173 173 170 166 166 164 165 166 164 162 163 165 167 168 168 170 170 170 169 166 164 164 165 163 161 160 160 160 158 157 157 156 154 152 151 150 149 149 149 149 147 143 139 135 133 131 131 130 129 127 124 120 116 111 108 104 100 97 95 92 87 80 71 68 68 53 36
172 217 230 226 213 242 264 248 239 251 274 294 297 290 265 255 246 210 211 198 186 183 184 187 188 185 183 177 175 178 176 176 172 165 165 163 162 162 161 162 164 165 167 170 172 173 172 171 172 171 169 169 169 168 166 165 165 164 162 159 158 156 154 154 153 153 153 153 154 154 151 147 143 141 140 139 139 137 135 132 128 124 119 113 109 104 100 99 97 90 81 73 69 71 69 52 39
172 198 214 226 224 237 269 258 218 214 253 271 282 298 287 266 268 301 280 219 193 188 184 182 180 179 181 177 174 175 176 174 169 163 161 160 160 158 158 161 164 165 167 171 174 174 175 175 175 175 175 174 174 173 172 169 166 165 163 161 159 157 156 157 157 158 159 159 159 156 153 151 148 145 145 145 143 141 139 136 131 126 121 114 109 105 101 98 97 92 85 78 73 74 68 48 38
Height
805 805 803 804 802 803 802 801 817 813 812 825 812 805 792 773 777 779 779 779 781 780 774 774 773 775 780 789 796 799 801 803 806 809 817 814 807 811 811 812 815 817 819 822 824 826 828 830 831 832 834 835 836 836 837 838 839 840 841 842 842 844 844 846 846 848 848 849 850 850 851 851 852 853 854 855 856 856 856 857 857 857 858 858 858 858 858 858 858 858 858 858 858 857 857 857 858
805 805 803 804 801 806 804 799 820 820 816 827 808 799 787 772 780 782 782 785 786 781 774 774 775 777 780 783 786 792 803 804 802 804 808 807 808 812 812 814 816 817 819 821 824 826 828 830 831 833 834 835 837 837 838 839 840 841 842 842 843 844 845 846 847 848 849 850 850 851 852 852 853 854 855 856 856 857 857 857 858 858 858 858 858 858 858 858 859 859 859 859 858 858 858 858 858
806 805 803 805 801 803 804 803 821 824 822 823 805 788 780 780 784 781 782 784 782 777 776 777 779 782 781 786 789 796 808 806 802 804 806 808 809 811 813 815 817 819 820 821 824 825 828 830 831 833 834 836 837 838 839 840 841 842 842 843 844 845 846 847 848 849 850 851 851 852 853 853 854 855 856 857 857 857 858 858 858 859 859 859 859 859 859 859 859 859 859 859 859 859 859 859 859
806 806 805 805 805 805 808 813 819 823 824 816 801 783 775 781 781 782 782 781 779 777 779 780 785 785 784 795 794 797 807 806 805 806 807 808 808 811 814 816 819 820 821 823 824 825 827 829 831 833 834 836 837 839 840 841 842 842 843 844 845 845 846 847 848 849 850 852 852 853 854 855 855 856 857 857 858 858 858 859 859 859 859 860 859 860 860 860 860 860 860 860 860 860 860 860 860
806 806 805 806 811 809 810 815 813 817 820 808 798 785 775 777 779 782 781 779 779 779 781 781 790 787 786 796 794 801 808 805 806 806 807 808 809 812 814 818 820 821 823 824 825 826 827 829 831 832 834 836 837 839 841 842 842 843 844 844 845 846 847 847 849 850 851 852 853 854 855 856 857 857 858 858 859 859 859 860 860 860 860 861 860 861 860 860 860 860 860 860 860 860 860 860 861
806 806 805 805 807 806 813 820 815 813 805 794 794 786 777 776 778 781 780 780 778 779 781 782 788 788 794 798 794 802 804 803 805 805 807 809 811 813 815 818 820 822 824 825 826 827 828 829 830 832 834 836 838 840 841 842 843 844 845 845 846 846 847 848 849 850 851 852 854 855 856 857 857 858 859 859 860 860 860 860 861 861 861 861 861 861 861 861 861 861 861 861 861 861 861 861 861
807 807 805 808 808 806 820 824 816 810 795 786 788 783 778 779 779 781 783 785 783 782 782 783 782 789 801 799 800 803 800 801 802 804 808 809 812 813 816 818 820 823 825 826 827 828 829 830 830 832 834 836 838 840 841 842 844 844 845 846 846 847 847 848 849 851 852 853 854 855 856 857 858 859 859 860 860 861 861 861 861 861 862 862 862 862 862 862 862 862 862 862 862 862 862 862 862
808 809 804 811 815 811 821 821 813 807 793 782 780 778 778 779 780 781 784 786 788 785 784 784 779 792 802 796 805 806 801 802 801 805 809 810 813 814 816 819 821 823 825 827 828 830 831 832 832 833 834 837 839 841 842 843 844 845 846 847 848 848 848 849 850 851 852 853 854 856 857 857 858 859 860 860 861 861 861 861 861 862 862 862 862 862 862 863 863 863 863 863 863 862 862 862 862
807 809 806 811 817 815 818 817 811 802 793 784 778 777 776 777 781 783 784 783 785 785 785 784 780 794 802 800 809 806 802 804 803 807 809 812 814 815 817 818 821 822 825 827 829 831 832 834 834 834 835 837 839 840 842 843 845 845 847 847 849 849 849 850 851 852 853 854 855 856 857 858 859 859 860 861 861 861 862 862 862 863 863 863 863 863 863 863 863 863 863 863 863 863 863 862 862
806 808 808 811 817 821 820 815 809 799 791 784 778 775 773 775 781 784 785 783 782 784 783 780 782 792 800 805 810 805 805 806 805 808 809 813 814 816 818 819 821 822 825 827 830 832 833 835 836 836 837 838 839 840 842 844 845 846 847 848 850 850 851 852 852 853 853 854 855 856 857 858 859 860 861 861 862 862 862 863 863 863 863 863 863 863 863 863 864 864 864 863 863 863 863 863 862
809 806 807 815 820 824 820 812 806 798 790 783 777 772 771 773 780 785 784 783 780 783 783 782 787 791 798 807 809 806 805 806 807 809 810 813 815 817 819 820 822 822 825 827 830 832 834 836 837 838 838 839 840 841 843 844 846 847 848 849 850 851 852 852 853 854 854 855 856 857 858 858 859 860 861 861 862 862 863 863 863 863 863 863 863 863 864 864 864 864 864 863 864 863 863 863 863
814 807 808 820 820 817 813 808 802 794 788 784 779 771 769 773 781 785 785 785 781 783 784 784 786 787 798 808 808 806 805 807 808 809 811 813 815 818 820 821 823 824 826 827 830 832 834 836 838 839 840 841 842 843 844 844 846 847 849 850 851 852 852 853 853 854 855 856 856 857 858 859 860 860 861 862 862 863 863 863 863 863 863 864 864 864 864 864 864 864 864 864 864 864 864 863 863
813 806 809 818 813 809 806 804 799 792 788 783 778 769 768 774 781 783 782 784 781 785 785 781 781 784 801 808 807 807 806 808 808 810 811 813 815 818 820 822 823 825 827 828 830 832 834 836 838 840 841 842 843 845 845 846 847 848 849 850 851 852 853 854 854 855 855 855 856 857 858 859 860 861 862 862 863 863 863 863 864 864 864 864 865 865 865 865 865 865 865 864 864 864 864 864 863
810 804 807 812 807 806 804 802 797 795 791 779 771 767 768 773 776 778 779 785 786 786 784 779 779 789 804 808 810 809 807 808 808 811 812 814 816 817 820 822 824 826 828 829 830 832 834 836 838 840 842 843 844 846 847 847 848 849 850 851 852 853 853 854 855 855 856 856 857 858 858 859 860 861 862 862 863 863 863 864 864 864 865 865 865 865 865 865 865 865 865 865 865 865 864 864 864
807 803 805 810 807 805 802 800 796 795 790 776 768 765 770 772 772 776 777 786 790 782 781 782 781 793 804 807 811 808 806 808 808 811 812 815 816 818 821 823 825 827 829 830 831 833 834 837 838 840 842 844 845 846 848 849 850 850 851 852 852 853 854 855 856 856 857 857 858 858 859 860 860 861 862 863 863 864 864 864 865 865 865 866 866 866 866 866 866 866 865 865 865 865 865 864 864
805 805 809 812 811 808 800 796 795 796 788 774 766 764 773 775 772 778 777 780 788 783 783 789 790 798 804 806 810 804 804 808 808 812 813 815 817 819 821 822 826 827 830 831 833 834 835 837 838 841 842 844 846 847 849 849 851 852 852 853 853 854 855 856 856 857 858 858 859 859 860 860 861 862 863 863 864 865 865 865 865 866 866 866 866 866 866 866 866 866 866 866 865 865 865 864 864
805 809 816 816 812 809 799 792 793 793 784 774 767 765 775 780 776 779 777 776 786 789 791 796 797 802 807 809 809 803 805 808 809 813 814 817 819 820 821 822 825 827 830 832 834 835 836 838 839 841 843 845 846 847 849 850 852 853 853 854 854 855 855 856 857 857 859 859 860 860 861 861 862 862 863 864 865 865 866 866 866 866 867 866 867 867 867 867 866 866 866 866 865 865 865 864 864
809 813 818 816 809 803 794 789 786 782 781 776 770 769 775 782 782 780 780 783 787 792 796 799 801 804 808 809 807 805 806 808 811 814 816 819 820 822 823 823 825 827 830 832 834 835 837 839 840 842 843 845 847 848 849 850 852 853 854 855 855 856 857 858 858 859 860 860 861 861 862 862 863 863 864 865 865 865 866 866 867 867 867 867 867 867 867 867 867 866 866 866 866 865 865 865 864
811 812 815 811 801 794 787 784 781 779 781 777 771 770 774 778 780 781 785 789 789 795 800 800 804 808 810 810 808 808 808 810 814 816 818 820 821 823 823 825 827 828 830 833 834 836 838 840 841 843 844 846 847 848 849 850 852 853 855 856 856 857 857 858 858 859 860 861 861 862 863 863 864 864 864 865 865 866 866 867 867 867 867 867 867 867 867 867 867 867 866 866 866 866 865 865 865
810 811 813 804 794 790 784 782 782 783 782 781 777 771 775 778 778 781 787 793 799 807 811 808 812 816 816 816 814 813 812 812 816 817 819 821 823 823 824 826 827 829 831 833 835 836 838 840 841 843 845 846 847 848 849 851 852 853 855 856 857 857 857 858 858 859 860 861 861 862 863 863 864 864 865 866 866 866 867 867 867 867 867 867 867 867 867 867 867 867 866 866 866 866 865 865 866
808 808 810 798 790 791 785 783 786 786 784 784 783 775 779 783 784 789 788 797 810 819 822 820 821 823 822 821 819 819 817 816 818 820 821 823 825 825 826 827 827 829 831 833 835 836 839 840 842 843 845 846 847 848 849 850 851 853 854 855 855 856 857 858 858 859 860 861 861 862 863 863 864 864 865 866 866 867 867 867 867 867 867 867 867 867 867 867 867 867 866 866 866 866 866 866 866
807 805 803 796 792 792 786 785 788 788 785 785 786 782 783 786 794 801 795 801 817 824 827 826 825 825 825 824 822 822 821 820 822 823 824 826 828 827 828 828 828 830 831 832 834 835 838 840 841 843 845 846 846 847 848 849 851 852 853 854 855 856 857 858 859 860 860 861 861 862 863 863 864 864 865 865 866 867 867 867 867 867 867 866 867 867 867 867 867 867 866 866 866 866 866 866 866
810 806 800 797 794 793 788 786 789 789 788 790 790 786 787 792 803 811 809 815 825 828 828 827 827 827 826 826 824 825 824 824 825 826 827 829 830 829 829 829 829 830 830 831 833 834 836 839 840 842 843 844 845 847 848 849 850 852 853 854 855 856 857 858 859 859 860 861 861 862 862 863 864 865 865 865 866 866 866 866 867 867 867 867 867 867 867 867 867 866 867 867 867 867 866 866 866
812 811 804 800 797 795 792 789 791 791 791 792 789 790 794 797 804 814 821 826 828 827 828 828 829 828 828 828 827 828 828 827 828 829 829 830 831 831 831 830 830 831 831 832 833 834 837 838 839 841 842 844 845 847 847 849 850 851 853 854 855 856 857 858 858 859 860 861 861 861 862 863 864 865 865 866 866 866 867 867 867 867 867 867 867 867 867 866 867 866 867 867 867 867 866 866 866
812 813 808 803 799 796 795 794 795 794 793 791 791 800 806 804 806 818 826 828 828 828 829 829 830 830 829 830 831 831 831 830 831 831 831 831 832 832 832 831 831 832 833 834 834 835 837 838 838 840 842 844 845 846 847 848 850 851 853 854 855 856 857 857 858 859 860 860 861 861 862 863 863 865 865 866 866 866 866 867 867 867 867 867 866 867 867 866 867 866 867 866 866 867 866 866 866
811 813 811 807 804 800 799 800 799 799 796 791 795 805 810 808 809 822 830 829 830 830 830 831 831 831 832 833 833 833 833 833 834 833 833 833 833 833 833 833 833 834 835 835 835 836 837 838 839 840 842 844 845 846 847 848 850 851 853 854 855 855 856 857 858 858 859 860 861 862 862 863 864 864 865 865 866 866 866 867 866 867 867 867 867 867 867 867 867 867 867 867 867 867 866 866 866
811 813 813 811 809 806 805 805 803 803 800 794 798 804 808 806 806 821 831 829 830 831 832 832 832 833 834 834 835 835 835 836 836 836 835 835 834 835 835 836 835 835 836 836 836 836 837 839 839 840 842 844 845 846 847 848 850 851 852 853 854 855 856 857 858 858 859 860 861 862 862 863 864 864 865 866 866 866 867 867 867 867 867 867 867 867 867 867 867 867 867 867 867 867 867 866 866
814 815 815 813 810 808 806 807 807 806 804 797 796 803 808 807 810 824 830 828 831 833 834 834 835 836 836 836 837 837 838 839 839 837 837 837 836 837 837 837 837 837 837 837 837 837 837 838 839 840 841 843 845 846 847 848 849 851 852 853 854 855 856 857 858 859 859 860 861 862 863 863 864 864 865 866 866 867 867 867 867 867 867 867 867 867 867 867 868 868 867 867 867 867 867 866 866
817 817 818 816 811 809 805 805 806 807 806 797 796 808 811 810 819 829 830 829 831 833 835 837 837 838 837 838 838 839 840 841 840 840 839 839 839 839 839 839 839 838 838 838 838 838 838 839 839 839 841 843 845 846 847 849 849 851 852 853 854 855 856 857 858 859 860 860 861 862 863 863 864 865 866 866 867 867 867 867 868 868 868 868 868 868 868 868 868 868 867 867 867 867 866 866 866
818 816 818 817 813 809 802 801 803 805 804 796 800 812 810 815 827 830 829 830 832 834 836 837 839 840 839 839 840 840 841 841 842 842 841 841 840 840 841 841 840 839 839 838 838 839 839 839 839 839 841 843 844 846 847 848 849 850 852 853 854 855 856 857 858 859 860 861 862 862 863 864 864 866 866 867 867 867 868 868 868 868 868 868 868 868 868 868 868 868 868 868 867 867 867 866 866
817 816 815 815 817 808 795 795 798 802 801 794 803 810 808 822 833 830 830 830 830 833 835 837 840 840 841 840 841 841 842 843 843 843 843 842 841 840 841 842 841 840 839 839 839 840 840 840 839 840 842 843 843 845 847 848 850 850 852 853 854 855 855 857 857 859 860 861 862 863 864 864 865 866 867 867 867 868 868 868 868 869 869 869 869 868 868 868 868 868 868 868 868 868 867 867 867
815 818 816 811 813 806 795 791 791 798 798 792 802 809 812 827 833 830 831 830 829 832 834 836 839 841 842 842 841 842 842 843 843 844 844 843 842 841 842 842 842 841 840 840 840 841 841 841 841 840 842 843 843 845 847 848 850 851 852 853 854 855 856 857 858 859 861 862 863 864 864 865 866 867 868 868 868 868 868 869 869 869 870 869 869 869 869 869 869 869 869 869 869 868 868 868 868
813 816 817 810 808 805 798 788 784 791 796 795 798 803 815 828 832 832 832 831 830 832 834 836 839 840 841 843 842 843 843 843 844 844 844 844 843 842 843 843 843 842 841 841 841 841 841 842 843 842 843 843 844 846 847 849 851 852 853 853 854 855 856 857 858 859 861 862 863 864 865 866 867 868 868 869 869 869 869 869 870 870 870 870 870 870 869 869 869 869 870 870 870 869 869 868 868
813 812 813 809 805 804 798 789 788 791 793 798 795 802 823 831 832 834 832 832 831 833 835 836 838 839 840 843 843 844 844 844 845 845 845 844 844 844 844 845 844 843 843 842 841 841 842 843 843 843 843 844 845 846 848 850 851 853 854 855 855 855 856 857 858 860 861 862 863 864 866 867 867 868 869 870 870 870 870 870 871 871 871 871 871 871 870 870 870 870 870 870 870 870 869 869 868
819 819 817 814 808 804 801 800 805 802 798 804 803 811 831 833 831 834 833 833 833 832 835 837 838 839 840 842 843 845 845 845 846 845 846 845 844 845 845 846 846 845 845 843 842 842 842 843 844 844 845 845 846 847 848 850 852 854 855 856 857 857 857 858 858 860 862 863 864 865 867 867 868 869 870 871 871 871 871 871 872 872 872 872 872 871 871 871 871 870 871 871 871 870 870 869 869
823 825 823 822 815 808 808 810 812 810 810 817 819 823 833 833 834 836 834 834 834 832 834 837 838 838 840 841 843 844 845 845 846 845 845 845 844 845 846 847 847 847 847 845 843 843 843 844 844 845 846 846 847 848 849 850 852 854 856 857 859 859 859 859 859 861 863 864 865 867 868 868 869 870 871 871 872 872 872 872 873 873 873 873 872 872 872 871 871 871 871 872 872 871 870 870 869
822 825 825 823 819 815 814 814 812 810 816 825 829 832 836 839 841 839 836 834 834 833 834 837 837 838 839 840 841 843 844 845 845 845 845 845 845 845 846 847 847 848 848 846 844 845 844 844 845 845 847 848 847 848 849 850 852 854 856 858 860 861 860 860 860 862 864 865 867 868 869 870 870 871 871 872 872 873 873 873 873 873 873 873 873 873 873 873 872 872 872 872 872 871 871 870 870
822 826 825 823 820 816 812 814 813 810 816 824 828 832 836 841 843 842 840 836 834 833 834 835 835 837 838 838 841 842 844 845 845 845 845 845 845 844 845 846 847 849 849 848 846 845 846 846 846 847 848 849 848 849 850 850 852 854 856 858 860 861 861 861 861 863 865 867 868 868 870 872 872 872 872 872 873 874 874 874 874 874 874 874 874 874 874 873 873 873 873 873 874 873 873 873 871
825 826 826 826 820 814 812 817 818 815 818 821 821 823 826 834 840 840 840 838 835 835 834 833 832 835 837 838 840 841 843 844 844 845 844 844 845 845 844 844 847 850 850 849 847 846 847 847 847 848 849 850 850 850 850 851 852 854 857 859 859 861 863 863 863 864 866 868 869 869 872 873 873 873 873 873 874 875 876 875 875 875 875 875 875 875 874 874 874 874 874 875 875 875 875 875 874
827 827 828 827 819 815 817 821 823 821 822 823 820 818 820 831 841 840 839 837 835 837 836 834 831 831 835 836 838 840 841 843 843 844 844 844 845 845 845 844 846 849 850 849 849 847 847 848 848 849 850 851 853 852 852 853 854 856 859 861 860 862 864 865 864 866 868 869 870 871 873 874 874 873 873 874 875 876 877 876 876 876 876 876 876 875 875 875 875 876 876 876 876 876 876 877 877
825 824 826 824 819 818 820 823 825 822 824 825 824 824 819 821 830 831 835 838 836 837 837 835 832 829 831 834 836 839 839 841 842 843 844 844 845 845 845 845 845 847 849 849 849 848 849 849 849 850 851 852 854 855 854 855 856 858 860 861 862 864 866 866 865 867 870 871 871 873 875 876 875 874 875 876 876 877 877 877 877 877 877 877 877 876 877 877 877 877 877 878 878 878 878 879 879
825 820 819 819 817 818 819 821 823 828 829 822 822 829 817 805 814 821 829 837 836 836 836 835 833 829 829 832 834 837 838 838 840 841 842 843 844 845 846 846 846 847 848 848 848 849 849 850 850 851 852 853 856 857 856 857 858 858 860 861 863 865 865 866 867 868 870 872 873 874 876 877 877 876 877 877 878 878 878 878 878 878 878 878 878 877 877 878 878 878 879 879 879 880 880 880 880
829 820 815 815 814 817 819 820 825 833 830 818 819 828 818 803 809 819 827 836 835 834 834 832 831 830 828 829 832 834 836 836 837 839 841 842 843 844 846 846 846 847 848 848 848 848 848 849 851 853 852 853 857 859 858 859 861 861 861 862 864 866 866 867 868 869 870 872 874 876 877 878 879 879 879 880 880 880 880 880 880 880 879 879 879 878 878 879 879 880 880 881 881 881 880 880 882
829 821 817 817 815 817 818 820 827 828 822 820 821 826 826 812 809 819 828 835 837 834 833 829 827 827 825 826 829 831 833 834 835 838 840 842 843 843 845 846 846 847 847 848 848 848 848 848 850 852 853 852 855 859 859 859 862 864 864 863 864 866 868 870 870 870 871 873 874 876 877 879 881 882 882 883 882 882 881 881 880 880 880 880 880 880 880 880 881 882 882 882 882 882 882 882 884
826 822 821 820 819 820 818 820 826 823 824 830 822 822 829 815 810 827 832 831 835 832 829 827 823 822 822 822 825 827 830 832 834 837 838 841 842 843 844 845 845 847 847 847 848 848 849 849 848 849 851 853 855 859 858 858 862 866 866 864 863 865 868 871 871 871 872 874 874 875 877 880 883 884 885 885 885 884 883 882 882 881 881 881 881 881 882 882 882 883 883 882 882 883 884 884 885
825 825 824 822 823 822 822 824 825 825 832 834 820 819 828 812 803 825 833 828 826 820 818 822 820 820 819 818 821 824 827 830 832 835 837 839 841 842 843 844 845 846 847 847 848 849 850 851 851 848 849 851 854 858 859 860 863 866 867 866 864 864 867 871 872 871 871 873 873 874 877 881 884 885 887 887 887 886 885 884 883 882 881 882 882 882 883 883 884 884 883 883 883 884 885 886 886
825 827 826 827 826 824 824 824 823 832 837 830 815 812 823 814 796 805 816 809 803 802 805 814 818 818 817 817 819 821 823 828 830 832 835 837 839 841 842 843 845 845 846 847 848 850 850 852 852 850 849 850 852 856 859 861 865 866 867 867 865 866 868 870 871 871 871 872 873 875 879 882 884 886 887 888 889 888 886 885 884 883 883 883 883 883 884 884 885 884 884 885 885 885 886 886 887
826 828 829 832 828 825 829 825 827 841 836 816 805 805 816 815 793 787 792 785 782 787 790 799 809 812 813 814 815 816 819 824 827 829 832 835 837 839 840 842 843 845 846 847 848 850 851 852 852 852 852 851 851 855 859 862 864 865 866 866 866 868 869 869 870 871 872 872 874 878 880 882 884 886 887 888 890 889 887 886 885 884 884 884 884 884 884 885 885 886 886 886 886 886 886 887 887
828 830 834 840 835 832 837 832 829 837 826 803 797 801 809 806 787 778 779 775 774 776 776 784 796 801 806 809 810 812 815 819 824 826 829 832 835 837 838 840 842 843 845 847 849 850 851 852 853 853 854 854 852 854 858 861 863 864 865 866 867 868 869 870 871 872 873 874 876 879 881 883 885 887 888 889 890 889 887 886 885 885 885 885 885 885 885 886 886 887 887 886 886 886 887 888 889
830 832 835 840 836 836 839 829 821 821 810 794 793 801 803 793 777 767 765 763 763 765 767 775 784 790 795 799 803 808 812 816 821 824 827 830 833 835 837 839 840 842 844 846 848 849 850 852 853 853 855 856 854 854 857 859 861 863 864 865 867 869 870 871 871 872 873 875 877 879 882 883 885 887 888 889 889 887 886 886 885 885 885 886 886 886 886 887 887 887 887 886 886 887 889 890 891
827 824 828 831 829 831 831 820 816 815 803 790 794 801 795 781 765 755 754 753 752 755 760 768 778 786 791 795 799 803 808 813 818 821 825 828 831 834 835 837 839 841 844 845 847 848 850 852 854 854 855 857 856 855 855 857 859 861 863 865 867 869 870 871 871 872 874 876 878 880 882 883 885 887 889 888 887 885 885 885 886 886 886 886 887 887 887 887 887 887 887 887 888 889 890 891 891
823 817 824 828 821 821 823 818 814 816 811 801 797 789 773 763 758 753 754 750 747 752 758 766 777 785 792 797 797 799 804 809 814 818 821 825 828 831 833 836 838 840 843 844 846 847 849 852 853 854 857 858 857 855 854 855 858 860 862 864 866 869 870 870 871 873 875 877 879 880 882 883 886 888 888 887 885 884 884 885 886 886 887 887 887 887 887 887 888 888 888 888 889 890 891 891 891
823 819 823 823 817 815 821 818 808 811 814 800 788 780 764 756 755 752 754 751 749 756 761 766 775 782 790 794 794 796 801 805 810 813 817 821 824 828 831 834 836 839 841 843 845 847 848 851 851 853 857 860 857 855 854 855 857 859 861 863 866 868 869 870 872 873 875 878 879 881 882 884 885 886 885 884 883 883 884 885 886 887 887 887 887 887 887 887 887 888 888 889 889 890 890 891 890
823 825 822 818 817 816 821 823 813 812 811 788 773 772 764 757 756 755 757 756 756 763 766 768 775 781 786 789 791 794 797 802 806 810 814 818 821 825 828 831 834 837 840 842 845 847 848 850 850 851 855 858 857 855 854 855 857 859 861 863 865 867 869 870 872 874 875 878 879 881 882 883 884 884 883 883 882 883 884 886 887 887 887 887 887 887 887 887 888 888 888 889 889 890 890 890 890
820 823 822 821 823 821 820 825 820 811 800 779 767 767 760 751 750 755 759 757 758 764 768 771 775 778 780 785 790 793 796 801 804 806 811 814 818 822 825 829 833 835 838 841 843 846 847 849 850 851 852 855 857 855 855 856 857 860 861 863 865 867 868 870 872 874 875 877 879 881 882 882 882 882 881 882 882 884 886 887 887 887 887 887 887 887 887 887 887 887 888 888 889 889 889 890 890
822 823 823 822 824 822 817 816 811 802 792 777 767 766 759 744 737 742 748 749 752 758 763 768 771 772 775 779 786 790 793 796 799 802 806 810 816 820 823 827 830 832 835 838 841 843 845 847 849 850 851 853 856 856 855 855 857 860 862 863 865 867 868 870 872 874 876 877 879 880 881 881 880 881 881 882 883 885 886 887 887 887 887 887 886 887 886 886 887 887 888 888 889 889 889 890 890
822 824 824 822 819 818 813 806 800 797 793 783 773 765 750 735 733 738 738 738 742 747 751 758 764 768 771 774 780 786 789 793 795 799 803 808 814 818 822 826 828 831 833 835 838 840 842 845 846 848 849 851 853 855 854 855 857 859 861 863 865 867 868 870 872 874 876 877 878 879 879 879 880 880 881 882 884 885 886 886 886 886 886 886 886 886 886 886 886 887 887 888 888 889 890 890 890
812 815 816 815 813 813 810 800 791 791 789 778 775 769 746 731 738 742 737 735 735 738 743 749 756 763 767 771 776 781 786 790 793 797 801 806 811 815 820 823 826 829 831 833 836 838 840 842 844 845 847 849 850 852 853 854 856 859 861 863 864 866 868 870 872 874 875 877 877 878 878 878 879 880 881 882 883 884 885 885 885 886 886 886 886 886 886 886 886 887 887 888 889 889 890 890 890